Regional Weather Roundup
Issued by NWS Albany, NY

Home | Current Version | Previous Version | Text Only | Print | Product List | Glossary On
Versions: 1 2 3 4 5 6 7 8 9 10 11 12 13 14 15 16 17 18 19 20 21 22 23 24 25 26 27 28 29 30 31 32 33 34 35 36 37 38 39 40 41 42 43 44 45 46 47 48 49 50
722
ASUS41 KALY 220210
RWRALY

NEW YORK STATE HOURLY WEATHER ROUNDUP
NATIONAL WEATHER SERVICE ALBANY NY
1000 PM EDT FRI JUL 21 2017

NOTE: "FAIR" INDICATES FEW OR NO CLOUDS BELOW 12,000 FEET WITH NO
SIGNIFICANT WEATHER AND/OR NO OBSTRUCTIONS TO VISIBILITY.

NYZ032-033-038>043-046>054-057>066-NYZ062>081-082-084-220300-
EAST


CITY           SKY/WX    TMP DP  RH WIND       PRES   REMARKS
ALBANY         PTCLDY    75  63  66 NW7       29.88R
GLENS FALLS    PTCLDY    68  61  78 N5        29.86R
POUGHKEEPSIE   CLOUDY    77  68  73 CALM      29.85R
NEWBURGH       MOCLDY    79  73  83 NW12      29.89R
MONTGOMERY     CLOUDY    78  71  79 CALM      29.88R
ISLIP          CLOUDY    80  73  79 SW7       29.87R
NEW YORK CITY  MOCLDY    89  69  51 W14       29.86R HX  93
CENTRAL PARK   CLOUDY    86  67  52 W7        29.89R
$$

NYZ005>009-017-018-044>046-055-056-220300-
CENTRAL


CITY           SKY/WX    TMP DP  RH WIND       PRES   REMARKS
FULTON         CLEAR     64  60  87 CALM      29.90S
SYRACUSE       MOCLDY    69  59  70 SW5       29.90S
ROME           CLEAR     66  61  84 CALM      29.91R
ELMIRA         CLEAR     72  47  40 NE5       29.94R
BINGHAMTON     CLOUDY    71  66  84 N9        29.96R
$$

NYZ026>034-041>043-087-220300-
NORTH


CITY           SKY/WX    TMP DP  RH WIND       PRES   REMARKS
WATERTOWN      MOCLDY    71  66  84 SW5       29.87S
FORT DRUM      NOT AVBL
OGDENSBURG     FAIR      68  65  89 S5        29.85S
MASSENA        PTCLDY    69  66  90 SW3       29.85R
SARANAC LAKE   MOCLDY    68  61  78 SW5       29.91R
PLATTSBURGH    PTCLDY    72  64  76 VRB3      29.83R
$$

NYZ001>004-010>016-019>021-085-220300-
WEST


CITY           SKY/WX    TMP DP  RH WIND       PRES   REMARKS
NIAGARA FALLS  MOCLDY    75  59  57 NW3       29.92S
BUFFALO        MOCLDY    75  67  76 W6        29.93R
DUNKIRK        PTCLDY    71  68  90 SW5       29.95R
JAMESTOWN      PTCLDY    72  59  64 W7        30.00S
WELLSVILLE     PTCLDY    69  63  81 W7        30.03R
ROCHESTER      MOCLDY    72  64  76 CALM      29.93R
PENN YAN       PTCLDY    71  65  81 CALM      29.95R
$$

             KEY
       WCI = WIND CHILL INDEX
       VSB = VISIBILITY
       HX  = HEAT INDEX
$$




USA.gov is the U.S. government's official web portal to all federal, state and local government web resources and services.